Location: Ballingbuur
(53.0000°N, 5.7667°E)
Time: 06:19:00
(UTC+00:00)

SL-4 R/B - Pass Details

Date: 29 November 2020
Orbit: 428 x 664 km, 51.6° (Epoch: 23 January)

Event Time Altitude Azimuth Distance (km) Brightness Sun altitude
Exits shadow 05:51:09 21° 268° (W) 1,189 3.2 -13.3°
Maximum altitude 05:53:39 68° 189° (S) 529 1.9 -13.0°
Drops below altitude 10° 05:57:16 10° 106° (ESE) 1,619 5.9 -12.5°
Sets 05:59:20 0° 104° (ESE) 2,463 7.4 -12.2°
